Total_Precipitation_Accumulation
0.08 0.08 0.09 0.13 0.09 0.07 0.02 0.01 0.01 0.01 0.01 0.01 0.01 0.01 0.01 0.01 0.03 0.09 0.12 0.13 0.15 0.14 0.19 0.33 0.52 0.58 0.67 0.73 0.70 0.62 0.57 0.53 0.54 0.54 0.51 0.49 0.50 0.55 0.62 0.66 0.72 0.75 0.80 0.81 0.81 0.94 0.99 0.99 0.92
0.07 0.11 0.14 0.15 0.09 0.05 0.02 0.01 0.01 0.01 0.01 0.01 0.01 0.01 0.01 0.01 0.02 0.07 0.12 0.13 0.15 0.16 0.18 0.27 0.48 0.59 0.66 0.68 0.64 0.61 0.59 0.56 0.51 0.49 0.50 0.51 0.54 0.57 0.63 0.70 0.76 0.76 0.88 0.88 0.90 0.96 0.92 0.89 0.82
0.13 0.17 0.18 0.16 0.08 0.03 0.02 0.02 0.01 0.01 0.02 0.01 0.01 0.01 0.02 0.03 0.04 0.07 0.11 0.13 0.17 0.19 0.24 0.35 0.49 0.62 0.68 0.68 0.64 0.63 0.61 0.56 0.52 0.49 0.50 0.52 0.55 0.59 0.62 0.63 0.68 0.72 0.82 0.82 0.82 0.87 0.82 0.78 0.76
0.22 0.27 0.21 0.14 0.05 0.02 0.02 0.02 0.02 0.02 0.01 0.01 0.02 0.02 0.04 0.03 0.04 0.06 0.11 0.15 0.18 0.20 0.26 0.39 0.52 0.65 0.69 0.69 0.72 0.73 0.69 0.63 0.56 0.54 0.55 0.56 0.59 0.60 0.59 0.56 0.54 0.59 0.64 0.66 0.71 0.76 0.75 0.70 0.65
0.27 0.28 0.21 0.11 0.04 0.02 0.02 0.03 0.03 0.02 0.01 0.01 0.02 0.03 0.06 0.06 0.05 0.07 0.11 0.15 0.20 0.23 0.27 0.40 0.57 0.72 0.73 0.74 0.74 0.75 0.73 0.72 0.63 0.61 0.64 0.64 0.61 0.63 0.58 0.50 0.48 0.50 0.50 0.53 0.62 0.72 0.75 0.72 0.63
0.32 0.29 0.19 0.09 0.05 0.03 0.03 0.03 0.04 0.04 0.02 0.01 0.02 0.04 0.09 0.09 0.09 0.11 0.13 0.17 0.23 0.26 0.31 0.45 0.66 0.82 0.80 0.82 0.80 0.83 0.82 0.81 0.72 0.70 0.74 0.74 0.72 0.68 0.63 0.55 0.49 0.48 0.46 0.48 0.53 0.64 0.78 0.77 0.65
0.33 0.28 0.14 0.08 0.06 0.05 0.04 0.05 0.05 0.06 0.04 0.02 0.02 0.05 0.11 0.11 0.11 0.14 0.17 0.22 0.29 0.33 0.37 0.46 0.68 0.88 0.90 0.84 0.88 0.93 0.90 0.92 0.85 0.80 0.80 0.75 0.73 0.70 0.70 0.66 0.59 0.57 0.53 0.50 0.51 0.57 0.74 0.77 0.68
0.33 0.36 0.18 0.08 0.07 0.06 0.04 0.05 0.05 0.08 0.07 0.03 0.03 0.06 0.09 0.11 0.14 0.20 0.27 0.31 0.36 0.40 0.50 0.59 0.72 1.01 1.06 0.85 0.83 0.92 0.93 0.96 0.90 0.83 0.75 0.64 0.65 0.69 0.66 0.59 0.58 0.58 0.57 0.54 0.49 0.50 0.61 0.68 0.65
0.43 0.46 0.24 0.11 0.08 0.08 0.06 0.06 0.05 0.07 0.08 0.06 0.06 0.05 0.06 0.10 0.20 0.28 0.36 0.42 0.47 0.51 0.64 0.79 0.94 1.11 1.15 0.96 0.83 0.93 0.96 0.98 0.91 0.79 0.68 0.62 0.63 0.61 0.56 0.47 0.48 0.54 0.59 0.57 0.54 0.53 0.57 0.61 0.55
0.58 0.44 0.24 0.13 0.09 0.09 0.08 0.09 0.09 0.08 0.10 0.10 0.08 0.08 0.10 0.17 0.27 0.33 0.36 0.42 0.47 0.56 0.73 0.83 1.03 1.15 1.13 1.03 0.95 1.00 0.97 0.96 0.86 0.68 0.68 0.71 0.71 0.69 0.60 0.51 0.47 0.54 0.57 0.60 0.63 0.62 0.59 0.55 0.50
0.53 0.35 0.19 0.12 0.11 0.11 0.10 0.11 0.13 0.12 0.13 0.11 0.10 0.11 0.16 0.25 0.32 0.36 0.39 0.44 0.48 0.58 0.77 0.94 1.13 1.32 1.24 1.14 1.06 1.06 1.04 0.99 0.94 0.83 0.74 0.81 0.85 0.80 0.74 0.65 0.59 0.56 0.54 0.56 0.60 0.63 0.57 0.57 0.67
0.47 0.28 0.16 0.14 0.13 0.17 0.17 0.13 0.14 0.16 0.15 0.12 0.11 0.17 0.24 0.25 0.29 0.33 0.41 0.50 0.58 0.65 0.78 1.01 1.20 1.36 1.39 1.31 1.21 1.11 1.02 0.98 0.94 0.96 0.88 0.86 0.83 0.74 0.69 0.60 0.54 0.55 0.53 0.54 0.55 0.56 0.58 0.58 0.63
0.42 0.30 0.19 0.15 0.16 0.18 0.20 0.19 0.16 0.15 0.12 0.14 0.20 0.25 0.26 0.24 0.26 0.31 0.40 0.48 0.57 0.66 0.74 0.97 1.14 1.29 1.41 1.45 1.37 1.26 1.11 0.99 0.96 0.97 0.97 0.91 0.82 0.76 0.68 0.59 0.56 0.52 0.50 0.51 0.50 0.47 0.51 0.57 0.61
0.38 0.31 0.27 0.21 0.20 0.22 0.22 0.21 0.19 0.18 0.16 0.19 0.21 0.23 0.26 0.27 0.27 0.32 0.39 0.44 0.51 0.59 0.67 0.82 1.01 1.12 1.28 1.30 1.31 1.32 1.24 1.14 1.09 1.03 0.98 1.03 0.92 0.82 0.75 0.65 0.59 0.56 0.52 0.50 0.49 0.47 0.50 0.52 0.54
0.39 0.40 0.34 0.27 0.24 0.25 0.28 0.27 0.22 0.18 0.19 0.21 0.22 0.24 0.27 0.28 0.29 0.35 0.39 0.37 0.43 0.53 0.64 0.78 0.91 1.01 1.12 1.18 1.23 1.25 1.21 1.18 1.10 1.05 1.01 1.06 1.08 0.92 0.86 0.80 0.71 0.63 0.59 0.62 0.65 0.62 0.63 0.64 0.64
0.52 0.57 0.50 0.30 0.23 0.27 0.40 0.34 0.22 0.21 0.20 0.20 0.22 0.25 0.28 0.27 0.30 0.39 0.45 0.41 0.43 0.49 0.58 0.71 0.82 0.97 1.07 1.19 1.27 1.32 1.28 1.25 1.11 1.07 1.07 1.06 1.10 1.08 1.00 0.95 0.88 0.75 0.70 0.74 0.75 0.76 0.77 0.70 0.71
0.76 0.63 0.46 0.32 0.23 0.28 0.41 0.34 0.22 0.22 0.22 0.19 0.20 0.22 0.25 0.27 0.32 0.38 0.41 0.39 0.42 0.46 0.52 0.65 0.76 0.84 0.99 1.22 1.38 1.38 1.42 1.41 1.27 1.20 1.21 1.12 1.09 1.06 1.02 1.02 0.98 0.87 0.80 0.81 0.81 0.76 0.77 0.78 0.81
0.64 0.46 0.35 0.30 0.27 0.30 0.35 0.26 0.20 0.22 0.23 0.21 0.20 0.23 0.25 0.27 0.30 0.36 0.39 0.39 0.46 0.51 0.53 0.61 0.77 0.93 1.06 1.25 1.46 1.54 1.44 1.44 1.42 1.29 1.24 1.18 1.17 1.12 1.05 1.02 0.99 0.98 0.95 0.90 0.86 0.81 0.81 0.81 0.84
0.48 0.44 0.36 0.27 0.27 0.40 0.35 0.24 0.21 0.21 0.24 0.24 0.23 0.22 0.24 0.26 0.31 0.39 0.41 0.43 0.47 0.55 0.57 0.59 0.69 0.91 1.10 1.20 1.31 1.44 1.38 1.34 1.38 1.36 1.25 1.21 1.13 1.11 1.08 0.99 0.96 0.95 0.94 0.93 0.92 0.88 0.85 0.82 0.85
0.59 0.55 0.41 0.30 0.27 0.42 0.42 0.30 0.22 0.20 0.25 0.25 0.24 0.22 0.23 0.27 0.32 0.39 0.44 0.48 0.48 0.53 0.60 0.61 0.61 0.76 0.94 1.05 1.17 1.37 1.45 1.45 1.52 1.47 1.38 1.36 1.19 1.05 1.04 1.03 0.98 0.96 0.96 0.94 0.92 0.93 0.91 0.89 0.87
0.66 0.56 0.44 0.43 0.39 0.45 0.48 0.41 0.26 0.22 0.23 0.25 0.24 0.22 0.23 0.28 0.32 0.37 0.44 0.50 0.55 0.55 0.58 0.62 0.60 0.68 0.84 1.05 1.22 1.38 1.63 1.63 1.61 1.54 1.42 1.45 1.41 1.17 1.04 1.01 1.03 1.00 0.99 0.97 0.92 0.90 0.94 0.98 0.96
0.62 0.43 0.42 0.51 0.69 0.69 0.58 0.62 0.33 0.25 0.23 0.24 0.24 0.22 0.26 0.31 0.34 0.39 0.46 0.49 0.58 0.58 0.58 0.61 0.64 0.68 0.79 1.00 1.17 1.20 1.31 1.38 1.27 1.25 1.26 1.33 1.49 1.40 1.14 1.02 0.98 0.96 0.97 0.98 1.00 0.94 0.92 0.99 0.99
0.49 0.37 0.48 0.60 0.81 0.80 0.58 0.65 0.39 0.28 0.30 0.27 0.25 0.23 0.26 0.29 0.38 0.43 0.46 0.48 0.58 0.62 0.61 0.63 0.70 0.70 0.76 0.92 1.08 1.17 1.18 1.20 1.24 1.21 1.17 1.22 1.30 1.39 1.31 1.10 1.06 1.03 0.98 0.94 0.98 1.01 0.97 0.96 0.96
0.57 0.64 0.79 0.89 1.18 1.19 0.49 0.49 0.43 0.37 0.36 0.33 0.30 0.26 0.25 0.30 0.42 0.47 0.49 0.54 0.63 0.67 0.67 0.68 0.72 0.75 0.74 0.83 0.97 1.08 1.11 1.16 1.24 1.25 1.14 1.11 1.20 1.27 1.30 1.22 1.08 1.05 1.00 0.95 0.97 1.00 0.97 0.97 0.97
0.95 1.39 1.96 2.05 1.85 1.03 0.31 0.35 0.43 0.40 0.39 0.43 0.39 0.32 0.26 0.32 0.41 0.43 0.47 0.56 0.65 0.70 0.68 0.67 0.70 0.79 0.80 0.86 0.89 0.93 1.02 1.10 1.16 1.23 1.22 1.19 1.18 1.23 1.28 1.26 1.14 1.05 1.04 1.00 0.98 1.04 1.01 1.00 1.01
0.95 1.18 1.51 1.51 1.05 0.53 0.29 0.32 0.35 0.33 0.32 0.36 0.36 0.33 0.29 0.31 0.37 0.40 0.39 0.44 0.56 0.69 0.75 0.72 0.66 0.70 0.80 0.89 0.88 0.90 0.98 1.07 1.06 1.10 1.17 1.20 1.18 1.20 1.29 1.31 1.25 1.15 1.14 1.15 1.13 1.13 1.13 1.11 1.08
0.96 0.93 0.78 1.02 0.77 0.56 0.38 0.30 0.26 0.21 0.22 0.32 0.36 0.35 0.36 0.32 0.34 0.34 0.34 0.37 0.43 0.53 0.63 0.73 0.71 0.69 0.70 0.82 0.93 0.92 0.97 1.05 1.04 1.02 1.06 1.07 1.06 1.07 1.12 1.23 1.29 1.32 1.29 1.26 1.31 1.32 1.26 1.26 1.22
0.76 0.90 1.05 1.42 1.29 0.77 0.40 0.32 0.36 0.27 0.25 0.31 0.40 0.40 0.44 0.41 0.37 0.32 0.30 0.35 0.39 0.44 0.48 0.62 0.74 0.75 0.76 0.77 0.88 0.95 0.96 1.02 1.07 1.07 1.05 1.07 1.11 1.10 1.06 1.07 1.13 1.22 1.29 1.30 1.30 1.31 1.33 1.38 1.37
0.71 0.99 1.31 1.38 1.12 0.88 0.54 0.42 0.42 0.35 0.30 0.33 0.42 0.47 0.49 0.49 0.47 0.41 0.34 0.35 0.38 0.45 0.51 0.53 0.66 0.76 0.80 0.77 0.80 0.89 0.98 0.99 1.08 1.15 1.14 1.11 1.17 1.22 1.18 1.13 1.09 1.06 1.12 1.24 1.33 1.33 1.36 1.41 1.39
0.62 0.76 1.02 1.35 1.05 0.72 0.62 0.45 0.32 0.30 0.30 0.33 0.39 0.46 0.49 0.47 0.46 0.42 0.36 0.36 0.40 0.48 0.52 0.54 0.63 0.69 0.77 0.81 0.82 0.85 0.96 1.01 1.06 1.12 1.20 1.18 1.18 1.22 1.22 1.21 1.16 1.05 1.02 1.11 1.22 1.27 1.29 1.34 1.32